Погода в Новомусином

Россия / Оренбургская область     52°55′13″N   54°25′01″E
темп.,
°C
ветер,
м/с
пор.,
м/с
влажн.,
%
обл.,
%
осадки,
мм/ч
давл.,
гПа
погр.,
м
6 марта, сб
сб623:00−8зсз349793 0.4 101066
02:00−12зсз239643 0.0 101221
05:00−13з229832 0.0 101421
08:00−15зюз229879 0.0 101520
11:00−11зюз229151 0.0 101588
14:00−7зюз35895 0.0 1016272
17:00−7зюз359448 0.0 1015242
20:00−10зюз1297100 0.0 101521
7 марта, вс
вс723:00−10ссз1197100 0.1 101421
02:00−11с2295100 0.0 101224
05:00−11ссв3492100 0.0 1011103
08:00−12ссв3391100 0.0 101082
11:00−12с4689100 0.0 1011220
14:00−10сз46880 0.0 1011279
17:00−11зсз47880 0.0 1012209
20:00−15юз33920 0.0 101322
8 марта, пн
пн823:00−15ююз479322 0.0 1014127
02:00−13ююз6129487 0.0 1012307
05:00−10ююз9178993 0.1 1009560
08:00−9ююз101792100 0.8 1006732
11:00−7ююз111792100 1.9 1005910
14:00−4юз111693100 0.7 1005976
17:00−3юз101590100 1.3 10051022
20:00−4юз91790100 0.1 1005673
9 марта, вт
вт923:00−3ююз81595100 0.6 1005782
02:00−3юз91695100 1.2 1004861
05:00−6зсз51096100 2.9 1005384
08:00−9з3496100 0.4 100766
11:00−10з369489 0.4 1009231
14:00−9зюз359319 0.0 1010262
17:00−10з369439 0.0 1011304
20:00−14з339880 0.0 101222
10 марта, ср
ср1023:00−15з229888 0.1 101320
02:00−17зсз2299100 0.1 101320
05:00−18зсз2399100 0.1 101320
08:00−21сз2210092 0.0 101420
11:00−18сз349592 0.0 1014183
14:00−15сз4592100 0.0 1014313
17:00−15зсз4693100 0.0 1015370
20:00−20зсз47100100 0.0 101694